Location: Brunembert
(50.7122°N, 1.8935°E)
Time: 08:51:06
(UTC+00:00)

COSMOS 2406 - Pass Details

Date: 22 April 2021
Orbit: 844 x 863 km, 71.0° (Epoch: 05 May)

Event Time Altitude Azimuth Distance (km) Brightness Sun altitude
Rises 23:34:29 0° 332° (NNW) 3,422 7.4 -26.7°
Reaches altitude 10° 23:37:08 10° 340° (NNW) 2,481 6.6 -26.7°
Maximum altitude 23:42:26 38° 48° (NE) 1,268 4.3 -26.7°
Enters shadow 23:44:54 26° 96° (E) 1,613 4.5 -26.7°
